Weather reports worldwide

Advertisment
Ronchi Dei Legionari, Italy (16108): temperature & dewpoint: 16.01.2019 04:00:00 - 22.01.2019 04:00:00 (CET)Ronchi Dei Legionari, Italy (16108): wind speed: 16.01.2019 04:00:00 - 22.01.2019 04:00:00 (CET)Ronchi Dei Legionari, Italy (16108): wind direction: 16.01.2019 04:00:00 - 22.01.2019 04:00:00 (CET)Ronchi Dei Legionari, Italy (16108): reduced air pressure: 16.01.2019 04:00:00 - 22.01.2019 04:00:00 (CET)Ronchi Dei Legionari, Italy (16108): visibility: 16.01.2019 04:00:00 - 22.01.2019 04:00:00 (CET)Ronchi Dei Legionari, Italy (16108): precipitation: 16.01.2019 04:00:00 - 22.01.2019 04:00:00 (CET)
Date & Time tt [°C] td [°C] ff [km/h] ff [kn] dd ppp [hPa] vv [km] rr [mm]
22.01.2019 04:00:00 -1,5 -4,4 4 2 - 1012,7 10 0,0
22.01.2019 03:00:00 1,0 -4,0 8 4 WNW - 10 -
22.01.2019 02:00:00 1,0 -4,0 4 2 - - 10 -
22.01.2019 01:00:00 1,2 -4,1 8 4 NNW 1014,9 10 -
22.01.2019 00:00:00 2,0 -4,0 4 2 - - 10 -
21.01.2019 23:00:00 1,0 -4,0 5 3 WNW - 10 -
21.01.2019 22:00:00 1,0 -3,2 8 4 W 1016,0 10 0,0
21.01.2019 21:00:00 3,0 -4,0 5 3 - - 10 -
21.01.2019 20:00:00 3,0 -4,0 8 4 NW - 10 -
21.01.2019 19:00:00 4,6 -4,2 11 6 ENE 1016,1 10 -
21.01.2019 18:00:00 5,0 -4,0 13 7 E - 10 -
21.01.2019 17:00:00 5,0 -4,0 24 13 E - 10 -
21.01.2019 16:00:00 5,3 -4,0 22 12 E 1016,2 10 0,0
21.01.2019 15:00:00 6,0 -4,0 26 14 ESE - 10 -
21.01.2019 14:00:00 6,0 -4,0 26 14 E - 10 -
21.01.2019 13:00:00 6,7 -3,8 29 16 E 1017,1 10 -
21.01.2019 12:00:00 7,0 -4,0 26 14 ESE - 10 -
21.01.2019 11:00:00 6,0 -4,0 8 4 E - 10 -
21.01.2019 10:00:00 4,8 -4,2 11 6 E 1018,2 10 0,0
21.01.2019 09:00:00 4,0 -4,0 13 7 NE - 10 -
21.01.2019 08:00:00 2,0 -5,0 5 3 NE - 10 -
21.01.2019 07:00:00 1,8 -4,0 4 2 - 1017,3 10 -
21.01.2019 06:00:00 3,0 -4,0 4 2 - - 10 -
21.01.2019 05:00:00 3,0 -4,0 2 1 - - 10 -
21.01.2019 04:00:00 4,1 -4,1 11 6 NE 1016,6 10 0,0
21.01.2019 03:00:00 4,0 -4,0 9 5 ENE - 10 -
21.01.2019 02:00:00 3,0 -2,0 8 4 NE - 10 -
21.01.2019 01:00:00 2,3 -1,9 4 2 - 1017,1 10 -
21.01.2019 00:00:00 2,0 -2,0 9 5 NNE - 10 -
20.01.2019 23:00:00 0,0 -2,0 8 4 N - 10 -
20.01.2019 22:00:00 -1,6 -3,1 4 2 - 1016,9 10 0,0
20.01.2019 21:00:00 0,0 -3,0 4 2 ENE - 10 -
20.01.2019 20:00:00 0,0 -2,0 4 2 E - 10 -
20.01.2019 19:00:00 1,4 -2,2 5 3 ESE 1016,1 10 -
20.01.2019 18:00:00 2,0 -2,0 4 2 W - 10 -
20.01.2019 17:00:00 5,0 -3,0 4 2 W - 10 -
20.01.2019 16:00:00 6,9 -2,8 5 3 W 1014,8 10 0,0
20.01.2019 15:00:00 6,0 -2,0 8 4 W - 10 -
20.01.2019 14:00:00 7,0 -3,0 8 4 NW - 10 -
20.01.2019 13:00:00 6,2 -2,9 8 4 NNW 1015,2 10 -
20.01.2019 12:00:00 6,0 -3,0 11 6 N - 10 -
20.01.2019 11:00:00 4,0 -3,0 9 5 N - 10 -
20.01.2019 10:00:00 2,3 -2,9 8 4 N 1015,7 10 0,0
20.01.2019 09:00:00 -1,0 -3,0 9 5 NNE - 10 -
20.01.2019 08:00:00 -2,0 -4,0 9 5 N - 10 -
20.01.2019 07:00:00 -1,6 -4,1 8 4 NNE 1014,7 10 -
20.01.2019 06:00:00 -2,0 -4,0 9 5 N - 10 -
20.01.2019 05:00:00 -1,0 -4,0 9 5 N - 10 -
20.01.2019 04:00:00 -0,5 -3,9 9 5 N 1015,0 10 0,0
20.01.2019 03:00:00 2,0 -4,0 8 4 NE - 10 -
20.01.2019 02:00:00 0,0 -3,0 8 4 N - 10 -
20.01.2019 01:00:00 1,5 -3,8 5 3 NE 1015,3 10 -
20.01.2019 00:00:00 1,0 -3,0 4 2 - - 10 -
19.01.2019 23:00:00 2,0 -3,0 4 2 NNE - 10 -
19.01.2019 22:00:00 2,5 -4,1 8 4 NE 1015,9 10 0,0
19.01.2019 21:00:00 1,0 -3,0 5 3 N - 10 -
19.01.2019 20:00:00 0,0 -3,0 8 4 N - 10 -
19.01.2019 19:00:00 0,8 -3,2 4 2 NW 1015,9 10 -
19.01.2019 18:00:00 4,0 -4,0 13 7 E - 10 -
19.01.2019 17:00:00 4,0 -4,0 16 9 ENE - 10 -
19.01.2019 16:00:00 4,6 -3,9 24 13 E 1015,8 10 0,0
19.01.2019 15:00:00 6,0 -3,0 22 12 E - 10 -
19.01.2019 14:00:00 6,0 -3,0 16 9 E - 10 -
19.01.2019 13:00:00 5,7 -3,6 22 12 E 1016,7 10 -
19.01.2019 12:00:00 6,0 -3,0 16 9 E - 10 -
19.01.2019 11:00:00 5,0 -3,0 21 11 E - 10 -
19.01.2019 10:00:00 4,9 -3,3 16 9 E 1017,7 10 0,0
19.01.2019 09:00:00 4,0 -3,0 8 4 ENE - 10 -
19.01.2019 08:00:00 4,0 -4,0 2 1 - - 10 -
19.01.2019 07:00:00 4,6 -3,5 18 10 E 1017,3 10 -
19.01.2019 06:00:00 5,0 -3,0 16 9 ENE - 10 -
19.01.2019 05:00:00 5,0 -3,0 21 11 E - 10 -
19.01.2019 04:00:00 4,9 -2,6 24 13 E 1017,6 10 0,0
19.01.2019 03:00:00 5,0 -4,0 28 15 E - 10 -
19.01.2019 02:00:00 5,0 -3,0 28 15 ENE - 10 -
19.01.2019 01:00:00 5,3 -3,7 26 14 ENE 1018,2 10 -
19.01.2019 00:00:00 5,0 -4,0 21 11 ENE - 10 -
18.01.2019 23:00:00 5,0 -3,0 15 8 ENE - 10 -
18.01.2019 22:00:00 5,5 -3,2 18 10 NE 1018,1 10 0,0
18.01.2019 21:00:00 6,0 -3,0 8 4 - - 10 -
18.01.2019 20:00:00 6,0 -2,0 24 13 E - 10 -
18.01.2019 19:00:00 6,5 -3,5 21 11 ENE 1016,6 10 -
18.01.2019 18:00:00 7,0 -1,0 21 11 ENE - 10 -
18.01.2019 17:00:00 7,0 -1,0 22 12 ENE - 10 -
18.01.2019 16:00:00 7,3 -0,5 18 10 E 1015,1 10 0,0
18.01.2019 15:00:00 7,0 1,0 16 9 E - 10 -
18.01.2019 14:00:00 6,0 2,0 18 10 ENE - 10 -
18.01.2019 13:00:00 5,9 3,2 9 5 NE 1014,7 10 -
18.01.2019 12:00:00 6,0 3,0 16 9 ENE - 10 -
18.01.2019 11:00:00 6,0 4,0 15 8 E - 9 -
18.01.2019 10:00:00 5,9 4,7 9 5 NNE 1012,9 9 0,0
18.01.2019 09:00:00 7,0 6,0 13 7 SE - 4,0 -
18.01.2019 08:00:00 8,0 8,0 5 3 SE - 5 -
18.01.2019 07:00:00 7,7 7,4 8 4 SE 1008,8 7 -
18.01.2019 06:00:00 8,0 8,0 5 3 SSE - 10 -
18.01.2019 05:00:00 8,0 8,0 5 3 SSE - 10 -
18.01.2019 04:00:00 7,9 7,8 9 5 ESE 1008,5 3,9 0,0
18.01.2019 03:00:00 8,0 8,0 5 3 S - 10 -
18.01.2019 02:00:00 8,0 8,0 5 3 S - 10 -
18.01.2019 01:00:00 7,6 7,4 8 4 ESE 1009,6 8 -
18.01.2019 00:00:00 7,0 7,0 5 3 N - 5 -
17.01.2019 23:00:00 7,0 7,0 5 3 NE - 5 -
17.01.2019 22:00:00 7,3 6,9 4 2 NNE 1011,1 8 0,0
17.01.2019 21:00:00 8,0 7,0 4 2 - - 8 -
17.01.2019 20:00:00 8,0 7,0 8 4 SE - 10 -
17.01.2019 19:00:00 7,9 6,5 8 4 SE 1012,0 10 -
17.01.2019 18:00:00 9,0 6,0 4 2 SSE - 10 -
17.01.2019 17:00:00 9,0 6,0 8 4 SE - 10 -
17.01.2019 16:00:00 9,3 5,7 5 3 SSE 1012,9 10 0,0
17.01.2019 15:00:00 10,0 5,0 9 5 S - 10 -
17.01.2019 14:00:00 10,0 6,0 5 3 S - 10 -
17.01.2019 13:00:00 9,9 5,8 8 4 SSE 1014,4 10 -
17.01.2019 12:00:00 9,0 6,0 8 4 SSE - 8 -
17.01.2019 11:00:00 8,0 5,0 2 1 - - 7 -
17.01.2019 10:00:00 6,0 4,0 2 1 - - 8 -
17.01.2019 09:00:00 5,0 3,0 4 2 N - 9 -
17.01.2019 08:00:00 4,0 3,0 5 3 N - 10 -
17.01.2019 07:00:00 3,9 2,6 4 2 N 1015,8 10 -
17.01.2019 06:00:00 4,0 3,0 2 1 - - 10 -
17.01.2019 05:00:00 4,0 3,0 5 3 N - 10 -
17.01.2019 04:00:00 3,7 2,4 2 1 - 1016,9 10 0,0
17.01.2019 03:00:00 4,0 3,0 4 2 NNW - 10 -
17.01.2019 02:00:00 4,0 3,0 2 1 - - 10 -
17.01.2019 01:00:00 3,7 2,3 5 3 N 1017,9 10 -
17.01.2019 00:00:00 4,0 3,0 4 2 NNW - 10 -
16.01.2019 23:00:00 5,0 3,0 5 3 N - 10 -
16.01.2019 22:00:00 5,1 3,1 5 3 N 1018,9 10 0,0
16.01.2019 21:00:00 5,0 3,0 4 2 NNE - 10 -
16.01.2019 20:00:00 5,0 3,0 8 4 N - 10 -
16.01.2019 19:00:00 5,0 2,9 4 2 NE 1019,0 10 -
16.01.2019 18:00:00 6,0 3,0 4 2 NE - 10 -
16.01.2019 17:00:00 6,0 3,0 4 2 - - 10 -
16.01.2019 16:00:00 8,3 3,2 11 6 SSW 1018,8 10 0,0
16.01.2019 15:00:00 9,0 4,0 11 6 S - 10 -
16.01.2019 14:00:00 10,0 4,0 11 6 SSW - 10 -
16.01.2019 13:00:00 9,3 4,6 11 6 S 1019,1 10 -
16.01.2019 12:00:00 9,0 5,0 13 7 S - 10 -
16.01.2019 11:00:00 9,0 5,0 13 7 SSE - 10 -
16.01.2019 10:00:00 8,4 5,4 13 7 SE 1019,8 10 0,0
16.01.2019 09:00:00 3,0 0,0 15 8 E - 10 -
16.01.2019 08:00:00 1,0 -1,0 4 2 E - 10 -
16.01.2019 07:00:00 -0,5 -2,6 5 3 NNE 1018,9 10 -
16.01.2019 06:00:00 1,0 -2,0 5 3 NNE - 10 -
16.01.2019 05:00:00 2,0 -2,0 5 3 NNE - 10 -
16.01.2019 04:00:00 1,2 -2,1 4 2 NNE 1019,2 10 0,0

tt = temperature
td = dewpoint
ff = wind speed
dd = wind direction
ppp = reduced air pressure
vv = visibility
rr = precipitation

Next stations